2016-070A

Last updated on Sun Nov 20 2016 01:17:38 GMT+0000 (Coordinated Universal Time)

1 41864U 16070A 16324.62174918 .00003601 00000-0 62588-4 0 9994 2 41864 51.6448 2.9030 0006344 228.6651 276.2111 15.53682027 283

Satellite not in orbit

2016-070A